Location: Firdgum
(53.2488°N, 5.5615°E)
Time: 09:23:43
(UTC+00:00)

Cosmos 1072 Rocket - Pass Details

Date: 08 December 2019
Orbit: 949 x 1008 km, 82.9° (Epoch: 29 January)

Event Time Altitude Azimuth Distance (km) Brightness Sun altitude
Exits shadow 04:52:23 36° 229° (SW) 1,461 5.1 -23.4°
Maximum altitude 04:54:39 55° 287° (WNW) 1,139 4.4 -23.1°
Drops below altitude 10° 05:00:43 10° 5° (N) 2,707 6.8 -22.2°
Sets 05:03:18 0° 10° (N) 3,665 7.5 -21.8°
